BEIDOU IGSO-6

Last updated on Sun Feb 19 2023 00:02:47 GMT+0000 (Coordinated Universal Time)

1 41434U 16021A 23048.96368792 -.00000128 00000+0 00000+0 0 9993 2 41434 58.4594 50.2981 0049189 225.4320 315.2055 1.00278123 25290
UTC large
Height (km)
Speed (km/s)
/
Latitude / Longitude
Inclination (degrees)
Orbital Period (minutes)
Azimuth
Elevation
Range (km)
Doppler Factor

Next 0 passes for location: London (51.5072 / 0.1276)

Sorry there are no passes over London.